Location: Buttermere
(51.3333°N, 1.5167°W)
Time: 01:10:48
(UTC+00:00)

ARGOS - Visible Passes

Search period start: 24 January 2021 00:00
Search period end: 03 February 2021 00:00
Orbit: 820 x 835 km, 98.4° (Epoch: 23 January)

Date Brightness Start Highest point End Pass type
(mag) Time Alt. Az. Time Alt. Az. Time Alt. Az.
24 Jan 6.2 06:32:52 10° ENE 06:35:15 13° E 06:37:37 10° ESE visible
24 Jan 3.7 18:00:09 10° SE 18:04:57 34° ENE 18:09:46 10° N visible
24 Jan 4.2 19:40:00 10° S 19:45:06 45° W 19:50:17 10° NNW visible
25 Jan 4.1 17:42:07 10° ESE 17:46:29 26° ENE 17:50:53 10° N visible
25 Jan 3.6 19:21:04 10° S 19:26:23 62° WSW 19:31:45 10° NNW visible
25 Jan 6.2 21:07:07 10° W 21:07:47 10° W 21:08:26 10° WNW visible
26 Jan 4.4 17:24:15 10° E 17:28:04 20° NE 17:31:54 10° N visible
26 Jan 3.1 19:02:20 10° SSE 19:07:43 85° WSW 19:13:09 10° NNW visible
26 Jan 5.9 20:45:49 10° WSW 20:48:49 15° W 20:51:49 10° NW visible
27 Jan 3.0 18:43:45 10° SSE 18:49:05 72° ENE 18:54:29 10° NNW visible
27 Jan 5.5 20:25:56 10° SW 20:29:55 21° W 20:33:55 10° NW visible
28 Jan 5.9 06:57:22 10° NE 07:01:23 21° E 07:05:24 10° SE visible
28 Jan 3.2 18:25:19 10° SE 18:30:31 52° ENE 18:35:45 10° N visible
28 Jan 5.0 20:06:28 10° SSW 20:11:03 28° W 20:15:42 10° NNW visible
29 Jan 6.1 06:39:27 10° NE 06:42:29 15° E 06:45:31 10° ESE visible
29 Jan 3.6 18:07:03 10° SE 18:11:59 39° ENE 18:16:58 10° N visible
29 Jan 4.4 19:47:15 10° SSW 19:52:15 39° W 19:57:19 10° NNW visible
30 Jan 6.6 06:22:47 10° ENE 06:23:31 10° E 06:24:16 10° E visible
30 Jan 3.9 17:48:55 10° ESE 17:53:30 29° ENE 17:58:07 10° N visible
30 Jan 3.8 19:28:16 10° S 19:33:31 54° W 19:38:49 10° NNW visible
31 Jan 4.3 17:30:59 10° ESE 17:35:04 23° ENE 17:39:10 10° N visible
31 Jan 3.3 19:09:27 10° S 19:14:49 75° WSW 19:20:15 10° NNW visible
31 Jan 6.0 20:53:40 10° WSW 20:56:03 13° W 20:58:26 10° WNW visible
01 Feb 3.0 18:50:48 10° SSE 18:56:11 81° ENE 19:01:37 10° NNW visible
01 Feb 5.7 20:33:29 10° SW 20:37:07 18° W 20:40:46 10° NW visible
02 Feb 5.9 07:04:16 10° NE 07:08:36 24° E 07:12:55 10° SE visible
02 Feb 3.1 18:32:18 10° SSE 18:37:34 60° ENE 18:42:54 10° N visible
02 Feb 5.2 20:13:52 10° SW 20:18:14 25° W 20:22:40 10° NW visible
